Рангкуль

Таджикистан     38°28′34″N   74°14′51″E
темп.,
°C
ветер,
м/с
пор.,
м/с
влажн.,
%
обл.,
%
осадки,
мм/ч
давл.,
гПа
погр.,
м
12 августа, пт
пт1223:00+10св33505 0.0 1010858
02:00+9всв22551 0.0 1010613
05:00+8св12594 0.0 1011259
08:00+10ссв11535 0.0 1011832
11:00+13юв133499 0.1 10072160
14:00+18ююв151845 0.0 10013278
17:00+18ссв441992 0.0 10002656
20:00+12св55477 0.0 1008895
13 августа, сб
сб1323:00+10всв33518 0.0 10101097
02:00+9всв225240 0.0 1011989
05:00+9всв125477 0.0 1011560
08:00+10ссв115264 0.1 1012988
11:00+13с1137100 0.3 10091915
14:00+15в543598 0.0 10062097
17:00+14ссв654376 0.1 10071118
20:00+9всв446483 0.2 1014817
14 августа, вс
вс1423:00+7св3377100 1.4 1016827
02:00+7св2272100 0.1 1015671
05:00+8в226295 0.2 1014796
08:00+9вюв336055 0.0 1014888
11:00+12вюв224996 0.1 10121552
14:00+14с224261 0.0 10081197
17:00+16ссв223598 0.1 10062091
20:00+11в346698 2.3 1012731
15 августа, пн
пн1523:00+7вюв2383100 7.3 1016408
02:00+8в2275100 1.3 1014393
05:00+9в1268100 1.4 1013523
08:00+10вюв116295 0.1 1013707
11:00+14в0246100 0.1 10091533
14:00+16зсз2235100 0.0 10041884
17:00+14сз5451100 0.4 1007688
20:00+13всв2255100 0.7 1008690
16 августа, вт
вт1623:00+11св336695 3.1 1010482
02:00+10ссв116881 1.8 1010261
05:00+10с126740 3.3 1010221
08:00+10ссв116011 1.5 1011594
11:00+13ссв134625 2.2 10081594
14:00+15вюв453799 0.2 10041952
17:00+17св4631100 0.4 10012192
20:00+12всв444743 0.1 1008740